This demonstration page uses our WeatherBlox Daily Observations layout. Learn more.

Left ArrowRight Arrow

38.80484, -77.04692

Hourly Observations for May 17, 2021

Temp ( °F °C ) Dew Point ( °F °C ) Humidity (%) Winds ( mph kmh ) Pressure ( in mb ) Visibility ( mi km ) Precip ( " mm )
12:52 am 00:52 Cloudy 61 16.1 50 10 67 67 N N/A 30.28 1025 10 16 N/A
1:52 am 01:52 Mostly Cloudy 58 14.4 49 9.4 72 72 NNW 6 9 30.28 1026 10 16 N/A
2:52 am 02:52 Mostly Cloudy 57 13.9 50 10 78 78 NNW 8 13 30.28 1025 10 16 N/A
3:52 am 03:52 Mostly Clear 56 13.3 50 10 81 81 NNW 5 7 30.27 1025 10 16 N/A
4:52 am 04:52 Mostly Clear 54 12.2 50 10 87 87 N 5 7 30.28 1025 10 16 N/A
5:52 am 05:52 Mostly Clear 54 12.2 50 10 87 87 NE 6 9 30.29 1026 10 16 N/A
6:52 am 06:52 Partly Cloudy 56 13.3 50 10 81 81 NE 3 6 30.29 1026 10 16 N/A
7:52 am 07:52 Mostly Sunny 60 15.6 52 11.1 75 75 NE 5 7 30.32 1027 10 16 N/A
8:52 am 08:52 Partly Cloudy 63 17.2 52 11.1 68 68 NNE 5 7 30.32 1027 10 16 N/A
9:52 am 09:52 Mostly Cloudy 67 19.4 50 10 55 55 N N/A 30.33 1027 10 16 N/A
10:52 am 10:52 Mostly Cloudy 68 20 51 10.6 55 55 N N/A 30.33 1027 10 16 N/A
11:52 am 11:52 Mostly Cloudy 71 21.7 50 10 47 47 SE 3 6 30.32 1027 10 16 N/A
12:52 pm 12:52 Mostly Cloudy 70 21.1 50 10 49 49 S 5 7 30.32 1027 10 16 N/A
1:52 pm 13:52 Mostly Cloudy 72 22.2 48 8.9 43 43 SSE 7 11 30.30 1026 10 16 N/A
2:52 pm 14:52 Mostly Cloudy 71 21.7 48 8.9 44 44 S 6 9 30.30 1026 10 16 N/A
3:52 pm 15:52 Mostly Cloudy 72 22.2 48 8.9 43 43 SE 3 6 30.28 1025 10 16 N/A
4:52 pm 16:52 Mostly Cloudy 73 22.8 46 7.8 38 38 VRB 3 6 30.27 1025 10 16 N/A
5:52 pm 17:52 Mostly Cloudy 74 23.3 47 8.3 38 38 N N/A 30.27 1025 10 16 N/A
6:52 pm 18:52 Mostly Cloudy 72 22.2 46 7.8 40 40 S 3 6 30.27 1025 10 16 N/A
7:52 pm 19:52 Mostly Cloudy 70 21.1 49 9.4 47 47 SE 7 11 30.28 1025 10 16 N/A
8:52 pm 20:52 Mostly Cloudy 67 19.4 49 9.4 53 53 SE 7 11 30.29 1026 10 16 N/A
9:52 pm 21:52 Mostly Cloudy 66 18.9 46 7.8 49 49 ESE 6 9 30.31 1027 10 16 N/A
10:52 pm 22:52 Mostly Cloudy 63 17.2 47 8.3 56 56 S 6 9 30.33 1027 10 16 N/A
11:52 pm 23:52 Mostly Cloudy 61 16.1 48 8.9 63 63 S 6 9 30.33 1027 10 16 N/A

Powered by AerisWeather